Regional Weather Roundup
Issued by NWS

Home | Current Version | Previous Version | Text Only | Print | Product List | Glossary On
Versions: 1 2 3 4 5 6 7 8 9 10 11 12 13 14 15 16 17 18 19 20 21 22 23 24 25 26 27 28 29 30 31 32 33 34 35 36 37 38 39 40 41 42 43 44 45 46 47 48 49 50
000
ASUS46 KSEW 051110
RWRWA

WASHINGTON REGIONAL WEATHER ROUNDUP
NATIONAL WEATHER SERVICE SEATTLE WA
400 AM PDT TUE MAY 05 2015

NOTE:"FAIR" INDICATES FEW OR NO CLOUDS BELOW 12,000 FEET WITH NO
SIGNIFICANT WEATHER AND/OR OBSTRUCTIONS TO VISIBILITY.

WAZ505-507>509-051200-
SEATTLE, TACOMA, EVERETT, AND VICINITY

CITY           SKY/WX    TMP DP  RH WIND       PRES   REMARKS
EVERETT        PTCLDY    48  40  73 S13       29.95F
BOEING FIELD   CLEAR     50  42  74 S9        29.99S
RENTON         PTCLDY    49  43  80 VRB6      29.99F
SEATAC AIRPORT PTCLDY    47  44  90 S10       29.99F
JBLM-MCCHORD   CLOUDY    47  46  99 S9        30.00S
PUYALLUP       CLOUDY    46  43  87 VRB5      30.01S
BREMERTON      CLOUDY    45  45 100 S8        30.00S
JBLM-FT LEWIS  MOCLDY    48  45  90 S8        29.99S
TACOMA NARROWS CLOUDY    48  43  82 S10       30.00R
$$

WAZ001-503-506-510-514-515-051200-
NORTH INTERIOR

CITY           SKY/WX    TMP DP  RH WIND       PRES   REMARKS
BELLINGHAM     CLOUDY    47  45  93 SE3       29.95F
FRIDAY HARBOR  LGT RAIN  45  44  97 CALM      29.96S
EASTSOUND      MOCLDY    46  46 100 S5        29.93F
PORT ANGELES   CLOUDY    47  40  76 W13       29.95S
NAS WHIDBEY    MOCLDY    50  44  80 NW7       29.96R
ARLINGTON      CLOUDY    48  39  71 SE14      29.97S
BURLINGTON     CLOUDY    46  45  93 CALM      29.96S
$$

WAZ020-022-039-040-504-511-512-051200-
SOUTHWEST INTERIOR

CITY           SKY/WX    TMP DP  RH WIND       PRES   REMARKS
SHELTON        CLOUDY    45  43  93 S5        29.97S
OLYMPIA        PTCLDY    46  42  86 S5        30.00S
CHEHALIS       PTSUNNY   46  46 100 CALM      30.02S
KELSO          CLOUDY    50  43  76 SE7       30.09R
VANCOUVER      CLEAR     50  42  74 CALM      30.06S
SCAPPOOSE, OR  PTCLDY    42  39  89 CALM      30.05S
PORTLAND, OR   MOCLDY    49  43  80 VRB3      30.06S
$$

WAZ021-516-517-051200-
WASHINGTON COAST

CITY           SKY/WX    TMP DP  RH WIND       PRES   REMARKS
FORKS          LGT RAIN  45  44  97 E6        29.95S
HOQUIAM        CLOUDY    50  45  83 SW13      29.99S
ASTORIA, OR    LGT RAIN  48  43  82 SW6       30.03R
$$

WAZ019-023-024-040-518-519-051200-
CASCADE MOUNTAINS AND COLUMBIA GORGE

CITY           SKY/WX    TMP DP  RH WIND       PRES   REMARKS
TROUTDALE, OR  CLOUDY    52  43  71 SW7       30.05S
THE DALLES, OR CLEAR     51  40  65 NW16      30.00R
$$

WAZ026-027-041>044-520-521-051200-
EAST SLOPES

CITY           SKY/WX    TMP DP  RH WIND       PRES   REMARKS
OMAK           CLEAR     43  26  51 CALM      29.80R
WENATCHEE      CLEAR     47  31  53 N7        29.88R
ELLENSBURG     CLEAR     45  34  65 NW18G28   29.92R
YAKIMA         CLEAR     43  30  60 CALM      29.93S
$$

WAZ028-034-035-051200-
COLUMBIA BASIN

CITY           SKY/WX    TMP DP  RH WIND       PRES   REMARKS
EPHRATA        CLEAR     43  33  68 W6        29.88R
MOSES LAKE     CLEAR     50  33  52 SW9       29.89R
PASCO          CLEAR     52  37  56 SW10      29.95R
HERMISTON, OR  PTCLDY    48  38  68 SW12      29.97S
$$

WAZ036>038-051200-
NORTHEAST WASHINGTON

CITY           SKY/WX    TMP DP  RH WIND       PRES   REMARKS
SPOKANE GEIGER PTCLDY    45  32  60 S13       29.88R
SPOKANE FELTS  PTCLDY    48  33  56 SW7       29.90R
FAIRCHILD AFB  PTCLDY    41  32  70 S13       29.88R
COEURDALENE,ID PTCLDY    46  30  53 CALM      29.91R
DEER PARK      CLEAR     43  31  62 SE6       29.88R
$$

WAZ029>033-051200-
SOUTHEAST WASHINGTON

CITY           SKY/WX    TMP DP  RH WIND       PRES   REMARKS
PULLMAN        PTCLDY    47  35  63 VRB5      29.95R
LEWISTON, ID   CLOUDY    56  33  42 W10       29.90R
WALLA WALLA    PTCLDY    51  37  58 S16       29.96R
PENDLETON, OR  CLEAR     47  36  65 W14       29.97S
$$



USA.gov is the U.S. government's official web portal to all federal, state and local government web resources and services.